Location: Newark
(45.0500°N, 41.9667°E)
Time: 22:56:48
(UTC+00:00)

Starlink (trailer) - Pass Details

Date: 28 July 2019
Orbit: 549 x 551 km, 53.0° (Epoch: 23 August)

Event Time Altitude Azimuth Distance (km) Brightness Sun altitude
Exits shadow 19:08:55 25° 80° (E) 1,140 5.0 -19.6°
Drops below altitude 10° 19:10:51 10° 67° (ENE) 1,825 6.2 -19.7°
Sets 19:13:09 0° 61° (ENE) 2,723 7.2 -20.0°
